Zurück zum Katalog

STARLINK-2088

AktivKommunikationVLEO
NORAD 47371·PAYLOAD·🇺🇸 United States

Gestartet Jan 20, 2021 von Cape Canaveral Space Force Station

Loading…

Nächste Überflüge (nächste 24 Stunden)

TLE

AktuellSource: CelesTrak SupGP

Epoche: Sep 15, 2026, 01:01 UTC

1 47371C 21005Y   26258.04284722  .00017772  00000+0  57162-3 0  2587
2 47371  53.1588 265.1409 0001246  85.4726 325.3027 15.31686392    13

Verfolge STARLINK-2088 in Echtzeit mit AllMySat

Download on the App Store